Location: Bathurst
(33.4193°S, 149.5775°E)
Time: 23:13:30
(UTC+10:00)

Vanguard 3 - Pass Details

Date: 02 July 2021
Orbit: 508 x 3261 km, 33.4° (Epoch: 25 July)

Event Time Altitude Azimuth Distance (km) Brightness Sun altitude
Rises 19:16:54 0° 257° (WSW) 6,315 12.7 -26.7°
Reaches altitude 10° 19:20:38 10° 258° (WSW) 5,565 12.2 -27.5°
Maximum altitude 19:39:04 75° 339° (NNW) 3,343 10.1 -31.3°
Enters shadow 19:50:16 34° 54° (NE) 4,322 10.4 -33.6°
